BEIDOU-3S IGSO-2S

Last updated on Thu Nov 21 2024 00:02:43 GMT+0000 (Coordinated Universal Time)

1 40938U 15053A 24325.61007090 -.00000153 00000+0 00000+0 0 9995 2 40938 50.1169 265.5738 0052072 189.2658 281.4879 1.00270334 33600
UTC large
Height (km)
Speed (km/s)
/
Latitude / Longitude
Inclination (degrees)
Orbital Period (minutes)
Azimuth
Elevation
Range (km)
Doppler Factor

Next 0 passes for location: London (51.5072 / 0.1276)

Sorry there are no passes over London.